Location: Kunchanapalle
(16.4623°N, 80.6176°E)
Time: 17:14:36
(UTC+00:00)

Cosmos 1339 Rocket - Pass Details

Date: 13 August 2020
Orbit: 941 x 1006 km, 82.9° (Epoch: 17 September)

Event Time Altitude Azimuth Distance (km) Brightness Sun altitude
Rises 13:52:32 0° 358° (N) 3,690 7.8 -12.1°
Reaches altitude 10° 13:55:04 10° 360° (N) 2,732 7.1 -12.7°
Maximum altitude 14:01:19 78° 86° (E) 992 4.4 -14.1°
Drops below altitude 10° 14:07:28 10° 172° (S) 2,682 6.5 -15.5°
Sets 14:09:56 0° 173° (S) 3,619 7.2 -16.0°
